Tracking 18980 objects as of 22-Feb-2018
HD Live streaming from Space Station
objects crossing your sky now

OPS 9327 (IDSCS 14)

Track OPS 9327 (IDSCS 14) now!
OPS 9327 (IDSCS 14) is classified as:


NORAD ID: 2654
Int'l Code: 1967-003G
Perigee: 33,657.3 km
Apogee: 34,100.5 km
Inclination: 2.6 °
Period: 1,339.4 minutes
Semi major axis: 40249 km
RCS: 0.5011 m2 (medium)
Launch date: January 18, 1967
Source: United States (US)
Launch site: AIR FORCE EASTERN TEST RANGE (AFETR)
aabbcc
Your satellite tracking list
Your tracking list is empty




NASA's NSSDC Master Catalog

Two Line Element Set (TLE):
1 02654U 67003G   18052.19299183 -.00000122  00000-0  00000+0 0  9996
2 02654   2.5869  57.2329 0055050 338.0700  84.8700  1.07511683106863
Source of the keplerian elements: AFSPC